| time (UTC) | temp C | wind direction | speed KPH | gust KPH | rain 1hr cm | rain 24hr cm | rain mn cm | humidity % | barometer mb |
| 20260505051552 | 16 | 111 | 0.0 | 1.6 | 0.00 | 0.00 | 0.00 | 64 | 1015.8 |
| 20260505050527 | 16 | 206 | 0.0 | 1.6 | 0.00 | 0.00 | 0.00 | 64 | 1015.8 |
| 20260505041526 | 17 | 129 | 0.0 | 3.2 | 0.00 | 0.00 | 0.00 | 61 | 1015.8 |
| 20260505040522 | 17 | 128 | 0.0 | 1.6 | 0.00 | 0.00 | 0.00 | 60 | 1015.8 |
| 20260505035517 | 17 | 270 | 0.0 | 1.6 | 0.00 | 0.00 | 0.00 | 59 | 1015.8 |
| 20260505034533 | 17 | 0.0 | 0.0 | 0.00 | 0.00 | 0.00 | 58 | 1015.8 | |
| 20260505033549 | 17 | 308 | 0.0 | 1.6 | 0.00 | 0.00 | 0.00 | 57 | 1015.9 |
| 20260505032525 | 17 | 311 | 0.0 | 0.0 | 0.00 | 0.00 | 0.00 | 57 | 1015.9 |
| 20260505031520 | 16 | 311 | 0.0 | 1.6 | 0.00 | 0.00 | 0.00 | 57 | 1015.8 |
| 20260505030516 | 16 | 0.0 | 0.0 | 0.00 | 0.00 | 0.00 | 57 | 1015.9 | |
| 20260505025531 | 17 | 333 | 0.0 | 3.2 | 0.00 | 0.00 | 0.00 | 57 | 1015.9 |
| 20260505024527 | 17 | 0.0 | 0.0 | 0.00 | 0.00 | 0.00 | 59 | 1015.8 | |
| 20260505023523 | 17 | 116 | 0.0 | 0.0 | 0.00 | 0.00 | 0.00 | 52 | 1015.7 |
| 20260505022518 | 17 | 116 | 0.0 | 0.0 | 0.00 | 0.00 | 0.00 | 54 | 1015.6 |
| 20260505021533 | 18 | 116 | 0.0 | 0.0 | 0.00 | 0.00 | 0.00 | 53 | 1015.5 |
| 20260505020529 | 18 | 0.0 | 0.0 | 0.00 | 0.00 | 0.00 | 50 | 1015.4 | |
| 20260505015524 | 18 | 0.0 | 0.0 | 0.00 | 0.00 | 0.00 | 49 | 1015.3 | |
| 20260505014519 | 17 | 0.0 | 0.0 | 0.00 | 0.00 | 0.00 | 52 | 1015.3 | |
| 20260505013534 | 17 | 0.0 | 0.0 | 0.00 | 0.00 | 0.00 | 56 | 1015.0 | |
| 20260505012550 | 17 | 0.0 | 0.0 | 0.00 | 0.00 | 0.00 | 53 | 1014.9 | |
| 20260505011525 | 17 | 0.0 | 0.0 | 0.00 | 0.00 | 0.00 | 60 | 1014.9 | |
| 20260505010521 | 17 | 0.0 | 0.0 | 0.00 | 0.00 | 0.00 | 57 | 1014.7 | |
| 20260505005516 | 17 | 0.0 | 0.0 | 0.00 | 0.00 | 0.00 | 54 | 1014.7 | |
| 20260505004531 | 17 | 0.0 | 0.0 | 0.00 | 0.00 | 0.00 | 54 | 1014.4 | |
| 20260505003527 | 18 | 0.0 | 0.0 | 0.00 | 0.00 | 0.00 | 54 | 1014.3 | |
| 20260505002543 | 18 | 0.0 | 0.0 | 0.00 | 0.00 | 0.00 | 50 | 1014.2 | |
| 20260505001518 | 19 | 0.0 | 0.0 | 0.00 | 0.00 | 0.00 | 51 | 1014.1 | |
| 20260505000533 | 20 | 0.0 | 0.0 | 0.00 | 0.00 | 0.00 | 46 | 1014.0 | |
| 20260504235528 | 21 | 0.0 | 0.0 | 0.00 | 0.00 | 0.00 | 42 | 1014.0 | |
| 20260504234524 | 21 | 0.0 | 0.0 | 0.00 | 0.00 | 0.00 | 40 | 1014.0 | |
| 20260504233519 | 22 | 0.0 | 0.0 | 0.00 | 0.00 | 0.00 | 37 | 1013.8 | |
| 20260504232535 | 22 | 0.0 | 0.0 | 0.00 | 0.00 | 0.00 | 37 | 1013.7 | |
| 20260504231531 | 22 | 0.0 | 0.0 | 0.00 | 0.00 | 0.00 | 38 | 1013.7 | |
| 20260504230527 | 23 | 0.0 | 0.0 | 0.00 | 0.00 | 0.00 | 38 | 1013.7 | |
| 20260504225522 | 23 | 347 | 0.0 | 1.6 | 0.00 | 0.00 | 0.00 | 34 | 1013.7 |
| 20260504224518 | 24 | 345 | 0.0 | 1.6 | 0.00 | 0.00 | 0.00 | 31 | 1013.8 |
| 20260504223534 | 25 | 324 | 0.0 | 1.6 | 0.00 | 0.00 | 0.00 | 31 | 1013.8 |
| 20260504222529 | 25 | 84 | 1.6 | 3.2 | 0.00 | 0.00 | 0.00 | 30 | 1013.8 |
| 20260504221525 | 25 | 327 | 1.6 | 3.2 | 0.00 | 0.00 | 0.00 | 30 | 1013.9 |
| 20260504220521 | 25 | 230 | 1.6 | 3.2 | 0.00 | 0.00 | 0.00 | 32 | 1013.9 |
| 20260504215516 | 25 | 126 | 1.6 | 4.8 | 0.00 | 0.00 | 0.00 | 30 | 1013.9 |
| 20260504214532 | 25 | 276 | 1.6 | 4.8 | 0.00 | 0.00 | 0.00 | 29 | 1013.8 |
| 20260504213528 | 26 | 118 | 1.6 | 4.8 | 0.00 | 0.00 | 0.00 | 29 | 1013.8 |
| 20260504212524 | 26 | 120 | 1.6 | 4.8 | 0.00 | 0.00 | 0.00 | 29 | 1013.8 |
| 20260504211519 | 27 | 58 | 1.6 | 3.2 | 0.00 | 0.00 | 0.00 | 28 | 1013.9 |
| 20260504210535 | 26 | 145 | 0.0 | 3.2 | 0.00 | 0.00 | 0.00 | 28 | 1013.8 |
| 20260504205531 | 26 | 123 | 3.2 | 9.7 | 0.00 | 0.00 | 0.00 | 29 | 1013.9 |
| 20260504204526 | 27 | 241 | 1.6 | 3.2 | 0.00 | 0.00 | 0.00 | 29 | 1014.0 |
| 20260504203522 | 27 | 91 | 1.6 | 3.2 | 0.00 | 0.00 | 0.00 | 28 | 1014.0 |
| 20260504202518 | 26 | 125 | 3.2 | 4.8 | 0.00 | 0.00 | 0.00 | 29 | 1014.1 |
| 20260504201534 | 26 | 119 | 1.6 | 6.4 | 0.00 | 0.00 | 0.00 | 28 | 1014.2 |
| 20260504200530 | 27 | 332 | 0.0 | 1.6 | 0.00 | 0.00 | 0.00 | 26 | 1014.3 |
| 20260504195525 | 27 | 124 | 3.2 | 4.8 | 0.00 | 0.00 | 0.00 | 27 | 1014.5 |
| 20260504194521 | 26 | 110 | 3.2 | 4.8 | 0.00 | 0.00 | 0.00 | 27 | 1014.6 |
| 20260504193517 | 27 | 132 | 3.2 | 4.8 | 0.00 | 0.00 | 0.00 | 27 | 1014.6 |
| 20260504192532 | 26 | 140 | 1.6 | 4.8 | 0.00 | 0.00 | 0.00 | 29 | 1014.8 |
| 20260504191528 | 27 | 118 | 3.2 | 6.4 | 0.00 | 0.00 | 0.00 | 26 | 1014.9 |
| 20260504190524 | 27 | 207 | 3.2 | 4.8 | 0.00 | 0.00 | 0.00 | 28 | 1015.0 |
| 20260504185520 | 26 | 109 | 1.6 | 6.4 | 0.00 | 0.00 | 0.00 | 28 | 1015.2 |
| 20260504184535 | 26 | 109 | 1.6 | 4.8 | 0.00 | 0.00 | 0.00 | 30 | 1015.2 |
| 20260504183531 | 26 | 290 | 1.6 | 3.2 | 0.00 | 0.00 | 0.00 | 29 | 1015.2 |
| 20260504182527 | 26 | 110 | 1.6 | 4.8 | 0.00 | 0.00 | 0.00 | 29 | 1015.3 |
| 20260504181522 | 25 | 111 | 1.6 | 4.8 | 0.00 | 0.00 | 0.00 | 31 | 1015.6 |
| 20260504180538 | 25 | 230 | 1.6 | 1.6 | 0.00 | 0.00 | 0.00 | 29 | 1015.6 |
| 20260504175534 | 25 | 26 | 1.6 | 6.4 | 0.00 | 0.00 | 0.00 | 29 | 1015.7 |
| 20260504174550 | 26 | 35 | 1.6 | 3.2 | 0.00 | 0.00 | 0.00 | 29 | 1015.6 |
| 20260504173525 | 25 | 177 | 1.6 | 3.2 | 0.00 | 0.00 | 0.00 | 30 | 1015.6 |
| 20260504172521 | 25 | 46 | 1.6 | 3.2 | 0.00 | 0.00 | 0.00 | 29 | 1015.8 |
| 20260504171517 | 24 | 65 | 1.6 | 4.8 | 0.00 | 0.00 | 0.00 | 27 | 1016.0 |
| 20260504170532 | 25 | 333 | 3.2 | 4.8 | 0.00 | 0.00 | 0.00 | 28 | 1016.3 |
| 20260504150517 | 19 | 120 | 1.6 | 3.2 | 0.00 | 0.00 | 0.00 | 50 | 1017.5 |
| 20260504140530 | 16 | 75 | 1.6 | 3.2 | 0.00 | 0.00 | 0.00 | 65 | 1017.6 |
| 20260504130524 | 12 | 132 | 0.0 | 1.6 | 0.00 | 0.00 | 0.00 | 77 | 1017.7 |
| 20260504110533 | 7 | 0.0 | 0.0 | 0.00 | 0.00 | 0.00 | 93 | 1017.9 | |
| 20260504100527 | 6 | 0.0 | 0.0 | 0.00 | 0.00 | 0.00 | 91 | 1017.6 | |
| 20260504081555 | 5 | 0.0 | 0.0 | 0.00 | 0.00 | 0.00 | 87 | 1017.6 | |
| 20260504080550 | 5 | 90 | 0.0 | 0.0 | 0.00 | 0.00 | 0.00 | 87 | 1017.6 |